Location: Madrid
(40.4000°N, 3.6830°W)
Time: 00:22:35
(UTC+02:00)

ISS - Pass Details

Date: 13 July 2019
Orbit: 409 x 418 km, 51.6° (Epoch: 22 July)

Event Time Altitude Azimuth Distance (km) Brightness Sun altitude
Exits shadow 03:56:39 - 305° (NW) 1,991 -0.2 -23.8°
Reaches altitude 10° 03:58:42 10° 329° (NNW) 1,482 -0.6 -23.6°
Maximum altitude 04:00:09 12° 355° (N) 1,351 -0.4 -23.5°
Drops below altitude 10° 04:01:36 10° 21° (NNE) 1,481 0.1 -23.4°
Sets 04:04:44 0° 53° (NE) 2,341 1.1 -23.2°
